Location: Byhalia Creek
(34.8270°N, 89.8040°W)
Time: 16:44:32
(UTC+00:00)

YAOGAN 11 - Pass Details

Date: 22 April 2026
Orbit: 598 x 647 km, 98.4° (Epoch: 9 May)

Event Time Altitude Azimuth Distance (km) Brightness Sun altitude
Rises 02:27:23 0° 15° (NNE) 2,875 7.7 -21.5°
Reaches altitude 10° 02:29:34 10° 18° (NNE) 1,974 6.8 -21.9°
Enters shadow 02:33:36 66° 78° (ENE) 678 4.0 -22.6°
